Location: Hilton Head Island
(32.2163°N, 80.7526°W)
Time: 22:14:47
(UTC-04:00)

Tiros 1 despin weight - Pass Details

Date: 19 February 2026
Orbit: 556 x 593 km, 48.2° (Epoch: 13 March)

Event Time Altitude Azimuth Distance (km) Brightness Sun altitude
Rises 18:38:31 0° 320° (NW) 2,731 ? -6.2°
Reaches altitude 10° 18:42:18 10° 355° (N) 1,835 ? -7.0°
Maximum altitude 18:43:43 11° 15° (NNE) 1,743 ? -7.3°
Drops below altitude 10° 18:45:09 10° 35° (NE) 1,837 ? -7.6°
Enters shadow 18:46:41 - 52° (NE) 2,114 ? -7.9°
Sets 18:48:56 0° 69° (ENE) 2,735 - -8.4°
